Lapse_Rate
6.8 6.7 6.6 6.5 6.6 6.8 7.8 8.2 8.2 7.7 7.5 7.4 7.4 7.2 7.2 7.3 8.0 8.4 8.7 8.9 8.5 8.5 8.4 8.5 8.5 8.2 8.2 8.1 7.8 7.5 7.1 6.9 6.7 6.4 6.3 6.0 5.8 5.7 5.8 5.6 5.5 5.3 5.4 5.6 5.8 6.0 6.4 6.4 6.9
6.7 6.6 6.5 6.3 6.5 6.8 7.7 8.0 7.6 7.5 7.5 7.5 7.6 7.6 7.8 7.6 8.0 8.4 9.0 9.0 8.8 8.7 8.5 8.5 8.3 8.2 8.0 8.0 7.8 7.6 7.1 7.1 6.8 6.6 6.3 6.1 5.9 5.7 5.8 5.5 5.2 5.2 5.3 5.4 5.7 5.8 6.1 6.3 6.8
6.5 6.5 6.3 6.3 6.6 7.0 7.4 7.6 7.6 7.5 7.4 7.2 7.4 7.8 7.9 8.2 8.4 8.5 8.9 9.3 8.9 8.9 8.5 8.6 8.5 8.1 7.8 7.9 7.9 7.6 7.3 7.3 7.1 6.9 6.6 6.3 6.0 5.9 5.7 5.5 5.2 5.2 5.3 5.2 5.4 5.7 5.9 6.3 6.7
6.5 6.4 6.1 6.2 6.8 7.3 7.8 7.6 7.4 7.7 7.6 7.2 7.1 7.8 7.9 8.1 8.2 8.5 8.8 9.0 9.0 8.8 8.3 8.2 8.2 8.2 7.9 7.9 7.8 7.7 7.6 7.4 7.3 7.1 6.9 6.5 6.1 5.8 5.5 5.3 5.3 5.1 5.3 5.3 5.4 5.7 5.9 6.0 6.5
6.4 6.3 5.9 6.4 6.9 7.3 7.5 7.5 7.4 7.3 7.7 7.5 7.0 7.4 7.8 8.1 8.1 8.4 8.5 8.7 8.6 8.8 8.2 8.3 8.0 8.1 7.9 7.9 7.8 7.7 7.6 7.4 7.3 7.1 6.9 6.6 6.0 5.6 5.4 5.3 5.4 5.2 5.3 5.4 5.2 5.5 5.6 5.7 6.0
6.0 6.1 5.7 6.0 6.6 6.9 7.5 7.0 6.9 7.1 7.4 7.5 7.2 7.1 7.3 7.7 7.8 7.7 8.1 8.5 8.4 8.3 8.2 8.3 8.2 8.1 8.0 7.9 7.8 7.7 7.6 7.5 7.3 7.0 6.8 6.5 6.0 5.5 5.4 5.3 5.4 5.3 5.4 5.5 5.2 5.4 5.6 5.6 6.0
5.8 5.5 5.3 5.6 6.2 6.5 7.2 6.7 6.6 6.6 7.2 7.4 7.3 7.2 7.2 7.4 7.4 7.5 7.9 8.0 8.5 8.5 8.3 8.3 8.2 8.0 8.0 8.0 7.8 7.7 7.6 7.5 7.3 6.9 6.6 6.4 6.0 5.6 5.4 5.3 5.3 5.3 5.5 5.5 5.3 5.3 5.4 5.7 5.8
5.5 5.2 4.9 5.4 5.9 5.9 6.8 6.5 6.5 6.4 6.7 7.2 7.1 7.0 7.4 7.5 7.3 7.5 7.8 8.0 8.2 8.4 8.3 8.1 8.1 8.2 8.0 8.0 7.8 7.7 7.7 7.6 7.3 6.8 6.5 6.3 6.1 5.7 5.4 5.3 5.2 5.3 5.5 5.3 5.5 5.2 5.4 5.6 6.1
5.6 5.1 5.2 5.5 5.6 5.4 6.0 6.1 7.1 6.7 6.0 7.0 7.4 7.1 7.1 7.1 7.7 7.6 7.5 7.7 7.8 8.3 8.2 8.2 8.2 8.2 8.1 8.0 7.9 7.8 7.8 7.6 7.4 7.0 6.6 6.3 6.2 5.9 5.6 5.4 5.2 5.4 5.3 5.5 5.4 5.5 5.4 5.5 5.6
5.2 5.2 5.4 5.0 5.3 5.1 5.5 6.0 6.6 6.4 6.4 7.0 7.4 7.3 7.1 6.9 7.3 7.8 7.7 7.8 7.9 8.1 8.0 8.2 8.4 8.4 8.3 8.1 8.0 7.9 7.9 7.7 7.5 7.2 6.8 6.5 6.3 6.1 5.8 5.6 5.2 5.3 5.3 5.3 5.3 5.5 5.7 5.5 5.5
5.1 5.4 5.2 5.3 5.2 5.2 5.2 5.5 5.7 6.3 6.2 6.5 7.3 7.8 7.7 7.2 7.0 7.4 7.7 7.7 8.2 8.1 8.4 7.9 7.8 8.3 8.5 8.3 8.1 8.0 7.9 7.8 7.6 7.4 6.9 6.6 6.5 6.2 5.8 5.6 5.3 5.4 5.4 5.6 5.5 5.5 5.5 5.7 6.1
5.1 5.4 5.2 5.3 5.6 5.3 5.3 5.2 5.7 6.0 6.3 6.7 6.7 7.0 7.6 7.3 7.2 7.0 7.1 7.5 8.0 8.3 8.2 8.0 7.9 7.8 8.2 8.5 8.2 8.0 8.0 7.8 7.6 7.6 7.2 6.7 6.7 6.5 6.0 5.6 5.3 5.3 5.3 5.3 5.4 5.4 5.6 5.8 6.1
5.4 5.5 5.7 5.5 5.5 5.8 5.7 5.7 5.8 6.5 6.8 6.6 6.9 7.0 7.1 7.6 7.3 7.2 7.2 7.2 7.4 8.0 8.0 8.2 7.8 7.7 7.6 8.0 8.1 8.1 8.0 7.8 7.6 7.7 7.4 7.0 6.7 6.7 6.3 5.9 5.5 5.1 5.0 5.0 5.3 5.4 5.5 5.9 6.0
5.7 6.0 6.3 6.2 6.2 6.1 6.1 6.3 6.0 6.1 6.4 7.2 7.2 7.3 7.5 7.6 7.8 7.5 7.4 7.3 7.2 7.7 7.6 7.6 7.8 7.6 7.5 7.4 7.8 8.0 7.8 7.7 7.6 7.6 7.5 7.3 6.9 6.9 6.6 6.2 6.0 5.4 5.2 5.1 5.1 5.4 5.4 5.7 5.8
6.2 6.2 6.4 6.5 6.5 6.4 6.4 6.0 6.3 6.9 6.4 6.4 7.2 7.4 7.5 7.6 7.6 7.8 7.6 7.5 7.5 7.5 8.0 7.7 7.8 7.6 7.5 7.6 7.7 8.0 7.8 7.7 7.5 7.5 7.5 7.4 7.1 7.0 6.8 6.5 6.4 5.9 5.4 5.4 5.2 5.1 5.4 5.6 5.6
6.2 6.0 6.3 6.6 6.7 6.6 6.0 5.5 6.2 7.1 6.8 6.5 6.7 7.2 7.8 7.8 7.8 7.9 7.8 7.6 7.4 7.5 7.7 8.0 8.1 7.9 7.6 7.6 7.8 7.9 7.8 7.8 7.7 7.4 7.4 7.4 7.4 7.1 7.0 6.7 6.6 6.5 6.1 5.7 5.7 5.4 5.4 5.5 5.6
6.0 5.4 5.5 5.5 5.6 5.6 5.5 5.8 6.7 5.8 6.1 6.6 7.0 7.1 7.7 8.1 8.3 8.0 8.1 8.0 7.8 7.8 8.0 8.2 8.1 8.1 8.0 8.1 7.8 7.9 7.8 7.8 7.8 7.6 7.5 7.5 7.4 7.3 7.3 7.0 6.7 6.7 6.5 6.2 6.0 5.7 5.5 5.4 5.2
4.8 4.6 5.0 5.2 4.9 4.7 4.7 5.1 5.6 5.7 5.0 5.8 6.1 6.8 7.5 7.9 8.3 8.5 8.1 8.1 7.9 8.0 8.3 8.3 8.1 8.4 8.4 8.2 8.0 8.1 7.9 7.7 7.8 7.7 7.6 7.6 7.6 7.4 7.4 7.3 6.9 6.9 6.8 6.5 6.5 6.0 5.7 5.3 5.2
4.4 4.6 4.5 4.8 4.8 4.1 4.1 4.6 5.5 5.6 6.0 5.9 5.8 5.9 6.1 6.5 7.7 8.3 8.5 8.2 7.8 7.9 8.0 8.3 8.6 8.5 8.5 8.4 8.0 7.9 8.1 8.0 7.9 7.8 7.8 7.6 7.6 7.5 7.4 7.4 7.2 7.1 7.1 6.8 6.6 6.4 6.1 5.9 5.5
5.1 4.8 4.8 4.8 4.9 4.2 5.1 5.6 6.3 6.6 6.5 6.4 6.5 6.3 6.2 6.0 6.1 7.1 8.1 8.1 8.0 7.8 7.9 8.2 8.3 8.8 8.9 8.2 8.3 8.2 8.3 8.2 8.2 8.0 7.9 7.6 7.5 7.5 7.5 7.6 7.4 7.3 7.1 7.2 6.9 6.7 6.6 6.3 5.9
5.1 4.7 4.5 4.4 4.9 5.0 4.8 5.7 5.9 6.9 7.0 7.3 7.9 7.7 7.6 6.7 6.1 6.1 6.9 7.9 8.0 7.6 7.6 7.9 8.3 8.5 9.0 8.6 8.5 8.5 8.4 8.2 8.1 8.1 8.1 7.8 7.6 7.7 7.7 7.6 7.5 7.4 7.3 7.4 7.2 6.8 6.7 6.6 6.2
4.9 4.5 4.4 5.0 4.9 4.5 5.0 4.0 5.8 7.7 7.8 7.6 7.8 7.4 7.4 7.2 6.8 6.3 6.2 7.5 8.0 7.7 7.8 7.9 8.0 8.1 8.6 8.6 8.9 8.2 8.4 8.4 8.3 8.5 8.5 8.0 8.2 7.7 7.7 7.6 7.6 7.6 7.5 7.5 7.4 7.0 6.8 6.8 6.6
4.4 4.5 5.0 5.4 5.4 4.7 5.7 5.5 6.7 8.1 8.0 7.5 7.0 7.3 7.9 8.1 7.5 6.8 6.7 7.0 7.9 7.6 7.8 8.0 8.0 8.2 8.4 8.5 8.6 8.5 8.2 8.4 8.6 8.5 8.4 8.4 8.4 7.7 7.6 7.7 7.7 7.8 7.8 7.8 7.4 7.3 7.1 6.9 6.7
4.5 4.8 5.8 5.7 5.4 4.5 6.4 6.7 6.8 8.1 8.2 7.2 7.2 6.9 8.4 9.3 8.2 7.6 7.5 6.9 7.4 7.8 7.8 8.0 8.0 7.8 8.5 8.5 8.5 8.3 8.7 8.5 8.5 8.6 8.4 8.5 8.4 7.9 7.5 7.7 7.8 7.8 7.8 7.9 7.7 7.2 7.0 7.0 6.9
4.8 5.0 4.1 4.6 5.0 5.0 6.6 6.1 7.4 8.2 7.8 7.5 7.1 6.8 8.0 8.7 8.4 8.1 8.2 7.2 7.6 8.0 7.7 8.0 8.0 7.9 8.0 8.4 8.4 8.7 8.8 8.1 8.6 8.6 8.6 8.7 8.5 7.9 7.6 7.7 7.8 7.8 7.7 7.8 7.7 7.4 7.3 7.3 7.0
4.5 4.3 4.3 3.3 4.8 5.2 6.1 6.1 7.5 7.6 7.5 7.6 7.6 6.7 7.1 7.5 7.6 8.1 8.0 7.9 7.9 7.8 7.8 7.8 7.8 8.2 7.8 8.2 8.6 8.9 8.6 8.1 8.3 8.5 8.6 8.7 8.3 7.5 7.4 7.5 7.6 7.6 7.7 7.8 7.8 7.5 7.3 7.1 7.0
4.6 4.7 4.8 4.6 5.2 5.7 6.6 6.9 7.4 7.4 7.4 7.5 7.3 6.2 6.6 6.9 7.5 7.3 8.2 7.9 7.8 7.9 8.1 8.4 8.2 8.3 8.1 8.2 8.5 8.4 8.3 7.9 8.1 8.5 8.5 8.4 7.6 7.5 7.5 7.5 7.6 7.6 7.7 7.7 7.8 7.5 7.3 6.9 7.0
5.0 5.1 4.9 5.1 5.5 6.3 6.3 6.8 7.0 6.9 6.9 7.0 6.8 6.3 6.3 6.6 6.9 6.9 7.1 7.7 8.0 8.0 8.0 8.0 7.8 7.8 7.1 6.9 7.1 7.6 7.8 7.8 7.4 7.4 7.7 7.5 7.6 7.4 7.5 7.5 7.4 7.4 7.5 7.7 7.8 7.6 7.2 7.0 7.0
5.3 5.1 5.1 5.1 6.1 6.7 6.4 6.9 7.0 7.0 6.6 6.7 6.7 6.4 6.2 5.7 6.4 6.5 6.9 6.9 7.1 7.7 8.2 7.4 7.4 6.7 6.0 6.7 6.5 6.7 7.1 7.0 6.6 6.4 6.3 6.7 7.2 7.2 7.2 7.2 7.0 7.2 7.4 7.5 7.4 7.3 7.1 6.9 6.9
5.4 5.2 5.4 5.5 6.1 6.3 6.3 6.5 7.2 7.0 6.5 6.6 6.2 5.9 5.9 5.5 5.9 6.6 6.6 6.6 6.9 7.0 7.3 7.2 6.4 5.7 5.5 6.0 6.1 5.6 5.7 6.6 6.7 5.6 6.0 6.0 6.7 7.0 6.8 6.7 7.0 7.1 7.2 7.3 7.2 7.0 6.9 6.8 7.0
Wind_Speed
2 2 3 4 4 5 4 5 2 4 4 5 8 3 6 3 6 5 4 3 12 13 15 17 17 17 17 18 18 17 17 18 19 18 17 19 19 19 18 18 18 19 18 17 17 17 16 17 18
1 2 4 3 5 3 5 4 4 4 11 13 10 10 4 7 3 2 6 7 15 16 15 16 18 18 19 20 19 19 18 18 19 19 18 18 18 17 17 17 18 17 17 16 17 17 17 18 20
1 3 4 4 4 5 5 4 5 6 9 4 8 4 6 6 4 5 1 9 14 14 17 17 20 20 20 20 20 20 19 19 18 19 18 18 17 17 16 15 15 16 17 16 17 17 17 18 22
2 4 4 4 5 6 6 5 4 10 3 6 6 6 10 4 3 4 10 13 14 13 15 19 22 20 20 20 21 19 19 18 18 17 17 17 17 16 14 14 14 13 14 15 15 15 19 22 22
4 3 4 2 4 5 6 4 5 4 7 6 4 9 20 11 9 1 10 13 15 11 11 17 22 21 20 21 21 21 20 19 19 17 17 15 16 16 15 16 15 14 16 17 16 18 18 22 21
4 3 4 3 5 5 6 5 3 3 5 8 6 9 8 6 7 5 6 8 6 10 9 15 20 22 21 21 21 22 21 20 20 19 18 15 16 16 15 14 15 15 16 19 19 18 18 23 22
6 4 3 4 4 5 4 3 5 4 6 5 3 9 6 10 9 7 5 6 7 5 5 4 9 13 18 21 21 22 22 22 21 20 19 17 17 16 15 13 13 14 16 20 20 20 19 22 24
5 4 3 4 3 6 5 6 4 2 7 5 4 4 10 8 8 6 9 6 3 5 5 6 8 10 10 14 19 21 22 23 22 21 20 19 18 17 15 12 12 13 14 20 22 23 21 21 22
3 4 2 4 4 4 8 6 2 1 6 4 4 5 7 7 3 5 4 4 6 1 7 8 11 11 9 9 14 18 20 22 22 19 20 19 13 14 13 13 15 15 13 18 18 25 24 23 21
4 4 7 5 3 4 5 10 13 3 7 5 7 6 6 3 3 5 1 2 3 3 6 7 11 10 11 9 10 10 13 14 14 14 15 13 14 13 12 14 15 15 13 15 16 20 23 17 13
2 4 4 4 4 3 5 8 2 6 0 5 16 10 12 6 6 7 6 6 6 5 3 8 8 9 10 9 7 5 7 11 12 13 13 13 12 12 11 11 10 12 11 8 11 13 12 12 10
2 2 2 5 5 5 5 4 8 5 9 9 9 14 9 10 8 8 8 9 8 7 7 6 6 8 10 8 8 5 6 8 6 11 13 10 5 6 6 6 9 9 9 7 8 8 9 12 10
3 3 5 5 11 8 6 6 7 12 11 9 11 11 10 11 10 9 10 8 9 11 10 10 10 10 9 10 8 8 7 9 9 12 12 12 6 7 6 5 8 9 9 8 6 6 5 8 9
1 3 8 4 7 4 9 8 1 4 10 17 14 13 12 11 11 10 10 9 8 11 13 16 14 12 12 12 13 10 8 9 11 11 12 13 10 6 6 5 4 7 10 9 8 6 4 3 7
3 4 5 6 9 4 13 3 7 10 12 19 22 17 16 14 13 13 12 14 10 10 13 15 19 21 15 15 12 10 9 11 9 9 15 12 12 10 7 6 6 8 10 12 8 5 5 4 4
5 5 6 7 10 5 9 11 5 11 22 25 18 21 21 19 16 15 13 14 16 11 10 14 14 18 20 17 12 10 11 11 9 11 13 15 13 13 8 7 7 11 12 9 6 5 4 3 5
7 4 5 6 9 7 5 26 19 17 16 24 22 21 19 24 22 18 11 12 17 17 14 9 15 18 20 17 12 10 12 11 8 12 11 16 15 15 9 7 6 14 7 7 6 3 4 3 3
5 5 5 8 5 5 9 25 24 26 14 20 26 26 23 23 29 19 19 11 15 12 14 14 13 17 19 13 10 8 8 10 8 9 9 16 15 16 10 6 8 11 7 6 5 5 3 3 5
4 4 11 10 9 7 8 22 25 23 22 21 23 26 26 25 28 21 18 15 13 17 14 15 14 17 13 11 12 12 13 13 11 11 14 14 15 17 10 7 8 9 9 9 8 4 5 2 5
6 8 10 11 1 12 14 27 22 18 13 18 21 22 24 26 25 25 17 10 10 15 14 11 15 16 15 13 14 11 12 11 10 9 11 16 14 17 12 11 10 11 8 9 9 7 3 3 7
4 5 5 12 21 10 9 12 11 26 15 19 21 21 21 24 26 25 24 19 14 15 16 14 15 17 18 19 11 4 8 5 7 9 10 14 15 15 13 12 10 11 9 9 11 9 9 6 5
4 3 8 12 9 6 10 8 11 14 20 22 25 30 23 22 23 21 23 21 19 15 15 16 15 18 18 19 16 18 16 14 11 14 13 12 16 15 12 13 11 11 9 10 10 8 8 8 8
7 7 11 16 12 2 1 1 10 20 18 16 24 36 31 25 21 21 21 21 21 16 13 14 12 12 14 19 20 17 17 14 10 10 14 14 14 15 14 14 14 13 9 11 13 11 10 7 8
8 6 9 1 2 2 4 2 18 7 11 19 20 26 32 24 17 17 19 20 20 9 9 10 11 12 13 17 20 22 21 16 11 12 12 11 11 11 14 13 13 12 11 12 11 12 13 10 8
7 6 4 5 4 4 4 11 9 15 15 19 21 24 28 26 11 9 8 9 11 9 10 10 15 10 11 17 19 20 19 17 18 16 13 14 11 9 13 13 12 11 12 12 10 11 10 10 10
3 1 3 3 4 11 16 5 6 15 14 20 18 22 30 22 14 14 13 11 8 5 4 7 6 10 12 15 17 15 13 9 10 13 13 11 11 11 13 13 12 13 13 12 12 9 9 10 9
2 1 5 3 9 5 5 7 12 19 23 21 19 20 21 21 17 18 19 16 14 13 11 6 11 8 8 11 11 12 10 11 10 12 13 12 14 11 13 15 13 13 12 12 12 9 10 9 9
3 2 4 2 4 6 3 8 5 22 25 27 24 20 20 22 21 18 20 19 14 15 13 13 16 16 11 3 8 9 9 10 9 10 13 15 12 12 12 12 12 11 12 12 11 9 9 10 8
2 2 2 2 2 3 6 7 6 18 22 25 23 19 18 21 22 18 21 18 13 17 17 17 20 17 10 7 6 6 8 9 6 4 5 8 10 10 11 12 12 11 10 11 10 9 8 11 10
4 4 3 1 3 5 5 7 12 26 23 22 18 18 19 18 21 21 22 19 14 17 17 17 17 14 15 13 13 11 8 7 5 4 3 6 8 9 10 10 11 11 11 10 10 9 9 10 10
Wind_Direction
68 91 90 43 51 57 281 268 286 321 12 319 274 246 224 226 183 216 348 147 112 136 144 155 159 162 158 151 144 140 136 133 128 127 124 127 131 138 142 147 147 147 146 147 150 149 145 126 126
99 128 46 77 87 56 277 278 302 347 309 300 295 320 276 257 222 284 127 179 143 144 150 157 167 169 164 158 152 149 145 136 135 135 136 137 140 143 146 151 152 150 146 146 147 148 141 129 131
279 43 80 91 107 181 233 209 268 290 291 321 324 329 333 304 310 195 200 139 139 143 153 164 173 173 167 163 159 154 148 142 141 140 143 144 144 141 141 144 148 150 149 149 153 150 139 129 125
94 21 41 95 203 246 218 265 289 334 346 51 317 21 328 276 261 234 142 144 142 153 163 172 170 171 169 171 163 155 148 146 143 142 145 147 144 140 136 135 134 145 151 149 151 145 134 132 131
40 61 74 81 258 271 252 246 281 324 296 338 356 310 324 339 341 100 155 158 155 161 171 178 170 167 171 175 164 156 153 149 145 147 146 148 143 140 138 141 138 136 151 146 146 145 143 131 129
48 86 82 204 243 252 277 253 294 301 298 328 6 343 291 310 29 16 301 143 134 166 174 180 178 168 174 177 165 158 155 151 150 153 151 150 144 145 147 142 147 146 154 151 144 139 138 129 129
111 90 192 162 259 301 269 309 317 312 322 308 292 325 279 329 344 102 20 347 101 121 149 168 185 183 181 174 166 160 157 153 155 159 157 155 150 154 157 144 144 149 156 150 146 139 136 132 134
106 94 131 226 221 269 275 327 258 264 299 298 349 312 315 306 339 80 81 2 62 121 151 160 180 193 195 180 168 163 158 154 159 161 159 162 156 161 167 153 150 152 156 156 148 139 138 137 142
123 71 191 233 178 251 303 306 203 319 253 309 253 312 271 311 84 49 78 67 336 292 174 172 191 197 192 182 174 164 157 156 158 161 160 158 155 159 164 160 155 158 156 158 146 145 147 140 145
93 124 217 213 241 267 295 299 308 337 320 280 289 269 282 263 152 131 294 176 239 296 286 213 198 202 186 183 175 165 159 158 156 161 159 153 155 159 159 156 159 164 158 168 143 143 143 132 134
97 192 191 257 272 19 270 299 277 313 331 282 295 301 304 296 256 193 178 208 200 206 206 229 237 219 191 184 180 161 148 160 163 159 157 153 149 150 152 146 147 157 154 118 124 128 133 137 137
30 238 57 293 297 319 275 267 298 256 250 258 280 290 293 289 287 255 227 189 182 183 196 189 229 225 217 191 186 181 166 170 174 171 158 157 149 146 154 156 151 150 155 143 147 150 146 140 146
167 329 311 276 302 280 284 257 245 282 298 293 285 298 296 288 277 272 247 246 196 185 185 188 187 220 214 199 193 192 192 186 180 175 169 160 159 157 151 155 152 155 155 149 149 150 157 144 146
307 293 301 350 303 331 338 288 268 288 331 347 338 323 311 295 285 281 280 256 212 219 198 177 183 198 208 205 193 191 189 198 189 182 183 166 169 156 156 149 152 152 156 163 174 170 165 139 140
309 346 345 18 350 12 337 94 169 345 348 334 321 323 318 305 306 279 272 266 243 218 210 189 187 182 191 210 203 192 194 190 196 192 182 177 165 166 155 156 160 166 163 176 161 138 134 127 145
24 56 11 321 15 350 49 286 343 314 333 312 305 303 301 293 288 292 292 275 269 253 217 196 193 187 188 192 197 195 198 192 194 193 190 181 173 173 158 162 168 165 171 169 173 162 139 138 174
16 323 315 314 341 348 54 293 301 314 307 298 297 291 286 291 285 276 268 272 276 256 244 207 190 189 192 189 183 191 193 197 188 195 196 188 183 173 173 169 164 163 173 176 165 149 139 148 156
305 309 278 291 281 298 284 273 291 296 292 282 287 287 284 280 276 277 270 255 271 256 241 226 202 196 192 185 175 179 185 201 189 193 197 191 190 183 174 171 165 165 172 170 155 152 135 142 142
238 250 279 278 275 299 249 281 288 291 286 280 269 274 278 275 277 276 269 257 249 262 247 219 197 198 182 182 183 188 197 200 197 195 198 190 188 186 179 174 167 172 181 180 170 137 146 110 135
354 302 294 302 213 309 290 288 294 284 285 287 282 273 268 269 272 273 267 265 238 248 246 224 211 188 189 193 189 192 192 200 198 189 192 198 190 189 182 177 179 179 175 177 173 156 138 124 166
270 250 276 286 313 222 281 282 332 306 307 301 294 279 270 267 264 265 268 261 249 237 241 229 211 199 192 193 185 150 165 138 170 190 191 199 196 189 182 181 179 180 180 180 182 179 167 166 187
301 241 277 280 324 301 72 290 314 311 312 309 328 323 295 272 262 254 257 257 244 228 231 222 217 204 195 186 182 184 185 187 196 198 196 191 189 186 182 180 178 180 183 186 183 185 185 163 178
250 285 261 281 276 290 47 139 271 304 297 323 348 330 310 290 262 254 250 251 242 229 218 217 213 209 193 189 189 191 190 198 189 186 186 189 187 181 183 182 186 185 185 184 183 180 190 186 182
270 267 291 78 163 349 227 105 290 297 309 325 347 322 330 312 269 252 255 256 240 215 185 195 196 199 187 190 194 193 197 184 176 174 181 187 188 178 184 186 187 185 185 182 183 185 189 189 189
354 8 343 350 3 263 313 329 254 289 324 331 333 336 337 338 336 313 295 277 237 188 197 187 188 176 179 189 194 195 196 188 185 181 178 179 180 180 188 180 186 188 184 181 182 180 187 191 194
28 36 114 264 307 294 304 231 266 321 335 333 346 350 347 334 353 360 360 14 28 30 196 177 144 149 174 184 191 190 187 180 185 184 177 182 185 187 178 182 186 187 179 179 183 188 191 193 203
241 55 186 221 248 259 256 299 311 0 347 340 345 342 4 347 3 12 12 19 26 27 16 72 96 70 152 171 165 167 154 159 173 183 178 182 186 184 179 188 186 180 180 176 180 187 189 190 198
124 239 22 312 309 309 292 294 328 348 340 342 340 346 7 357 3 8 12 9 18 34 23 28 62 53 25 30 176 158 158 164 171 180 182 184 180 166 172 184 183 178 179 177 178 185 186 190 201
344 25 24 253 216 279 299 325 39 351 345 339 337 355 14 10 10 7 9 3 10 33 30 31 39 42 16 17 65 112 130 128 137 161 192 188 166 165 170 175 176 171 173 175 179 177 174 193 201
182 160 126 56 296 241 260 280 355 343 338 338 348 1 14 18 14 15 13 355 7 34 30 37 37 28 23 15 38 41 42 61 79 195 166 207 178 170 177 179 172 167 174 172 180 181 183 197 203